Stations météo

réclame
Mon MeteoGroup
Stornoway, Grande-Bretagne (3026): Température de l'air & dewpoint: 10.08.2018 02:00:00 - 16.08.2018 02:00:00 (BST)Stornoway, Grande-Bretagne (3026): Température de l'air -20cm & Température de l'air -100cm: 10.08.2018 02:00:00 - 16.08.2018 02:00:00 (BST)Stornoway, Grande-Bretagne (3026): Vitesse du vent & gusts: 10.08.2018 02:00:00 - 16.08.2018 02:00:00 (BST)Stornoway, Grande-Bretagne (3026): Direction du vent: 10.08.2018 02:00:00 - 16.08.2018 02:00:00 (BST)Stornoway, Grande-Bretagne (3026): reduced air pressure: 10.08.2018 02:00:00 - 16.08.2018 02:00:00 (BST)Stornoway, Grande-Bretagne (3026): visibility: 10.08.2018 02:00:00 - 16.08.2018 02:00:00 (BST)Stornoway, Grande-Bretagne (3026): Ensoleillement: 10.08.2018 02:00:00 - 16.08.2018 02:00:00 (BST)Stornoway, Grande-Bretagne (3026): Quantités de précipitations: 10.08.2018 02:00:00 - 16.08.2018 02:00:00 (BST)
Date & Time tt [°C] td [°C] tt -20cm [°C] tt -100cm [°C] ff [km/h] ff [knt] fx [km/h] fx [knt] dd ppp [hPa] vv [km] sd [min] rr [mm]
16.08.2018 02:00:00 12,2 9,8 - - 26 14 - - SSW 999,5 16 0 0,0
16.08.2018 01:00:00 12,3 9,9 - - 21 11 - - SSW 999,9 20 - 0,0
16.08.2018 00:00:00 12,0 9,6 - - 22 12 - - SSW 999,9 15 0 0,0
15.08.2018 23:00:00 12,1 8,8 - - 26 14 - - SSW 1000,0 19 0 0,0
15.08.2018 22:00:00 12,1 8,9 - - 29 16 - - SW 999,8 17 0 0,0
15.08.2018 21:00:00 12,7 9,5 - - 24 13 - - SW 999,7 15 36 0,0
15.08.2018 20:00:00 13,4 9,1 - - 24 13 48 26 SW 999,5 17 60 0,0
15.08.2018 19:00:00 14,3 11,4 - - 31 17 55 30 SW 998,7 27 12 0,4
15.08.2018 18:00:00 14,2 11,8 - - 42 23 63 34 SSW 998,9 13 18 0,0
15.08.2018 17:00:00 13,5 11,8 - - 41 22 65 35 SSW 999,6 17 0 0,0
15.08.2018 16:00:00 13,6 11,6 - - 46 25 67 36 SSW 1000,1 15 0 0,4
15.08.2018 15:00:00 13,3 11,2 - - 37 20 68 37 SSW 1001,1 12 0 0,0
15.08.2018 14:00:00 14,5 12,0 - - 37 20 55 30 SSW 1001,2 14 0 0,0
15.08.2018 13:00:00 14,4 12,0 - - 28 15 - - SSW 1001,8 20 0 0,0
15.08.2018 12:00:00 13,8 11,8 - - 28 15 46 25 SSW 1002,5 24 0 0,0
15.08.2018 11:00:00 14,8 11,7 - - 26 14 50 27 SSW 1002,3 27 6 0,0
15.08.2018 10:00:00 14,7 11,3 14,9 13,7 22 12 - - SSW 1002,8 29 0 0,0
15.08.2018 09:00:00 14,3 10,7 - - 26 14 - - SW 1002,8 50 0 0,0
15.08.2018 08:00:00 13,8 11,8 - - 21 11 - - SW 1003,1 50 0 0,2
15.08.2018 07:00:00 13,3 12,3 - - 15 8 - - SSW 1003,2 50 0 0,0
15.08.2018 06:00:00 13,1 11,7 - - 18 10 - - SW 1003,4 40 0 0,0
15.08.2018 05:00:00 13,2 11,7 - - 22 12 - - SSW 1003,5 40 0 0,0
15.08.2018 04:00:00 13,2 11,3 - - 18 10 - - SSW 1004,1 30 0 0,0
15.08.2018 03:00:00 13,1 10,9 - - 18 10 - - SSW 1004,9 30 0 0,0
15.08.2018 02:00:00 13,0 10,3 - - 22 12 - - SSW 1005,3 45 0 0,0
15.08.2018 01:00:00 13,4 11,3 - - 18 10 - - SSW 1005,9 28 - 0,0
15.08.2018 00:00:00 13,0 10,4 - - 26 14 - - SW 1006,2 50 0 0,0
14.08.2018 23:00:00 13,1 11,1 - - 21 11 - - SW 1006,7 35 0 0,0
14.08.2018 22:00:00 13,4 12,2 - - 16 9 - - WSW 1007,1 35 0 0,0
14.08.2018 21:00:00 13,4 12,5 - - 22 12 - - W 1006,9 30 0 0,0
14.08.2018 20:00:00 14,1 13,4 - - 21 11 - - WSW 1006,7 28 0 0,2
14.08.2018 19:00:00 14,9 13,7 - - 18 10 - - WSW 1006,1 18 0 0,0
14.08.2018 18:00:00 15,7 13,9 - - 21 11 - - WSW 1005,8 35 0 0,0
14.08.2018 17:00:00 16,1 14,1 - - 28 15 - - WSW 1005,8 45 0 0,0
14.08.2018 16:00:00 16,5 15,0 - - 24 13 - - WSW 1005,6 40 0 0,0
14.08.2018 15:00:00 16,7 15,1 - - 21 11 - - SSW 1005,4 21 0 0,0
14.08.2018 14:00:00 14,9 14,0 - - 18 10 - - S 1005,6 45 0 0,0
14.08.2018 13:00:00 14,9 13,7 - - 18 10 - - SSW 1005,9 19 0 0,0
14.08.2018 12:00:00 14,4 13,5 - - 22 12 - - SSW 1006,0 12 0 0,0
14.08.2018 11:00:00 13,9 13,3 - - 24 13 - - SSW 1006,0 7 0 2,2
14.08.2018 10:00:00 13,7 13,0 14,9 13,7 21 11 - - SSW 1006,3 9 0 0,4
14.08.2018 09:00:00 13,4 12,5 - - 22 12 - - S 1006,3 11 0 0,2
14.08.2018 08:00:00 13,8 12,0 - - 16 9 - - SSW 1006,5 45 0 0,0
14.08.2018 07:00:00 13,7 12,7 - - 16 9 - - SSW 1006,4 45 0 0,0
14.08.2018 06:00:00 13,2 12,6 - - 16 9 - - SSW 1006,4 10 0 0,0
14.08.2018 05:00:00 13,3 12,4 - - 21 11 - - SSW 1006,8 40 0 0,0
14.08.2018 04:00:00 13,4 12,1 - - 22 12 - - SSW 1007,3 45 0 0,0
14.08.2018 03:00:00 13,6 12,6 - - 16 9 - - SSW 1007,4 40 0 0,0
14.08.2018 02:00:00 13,5 12,9 - - 15 8 - - S 1007,5 50 0 0,0
14.08.2018 01:00:00 13,5 12,8 - - 21 11 - - S 1007,7 50 - 0,0
14.08.2018 00:00:00 13,8 12,8 - - 18 10 - - SSW 1007,9 45 0 0,0
13.08.2018 23:00:00 13,8 12,8 - - 18 10 - - SSW 1008,0 45 0 0,0
13.08.2018 22:00:00 13,9 12,7 - - 16 9 - - SSW 1008,0 40 0 0,0
13.08.2018 21:00:00 14,2 12,7 - - 18 10 - - SSW 1008,0 45 0 0,0
13.08.2018 20:00:00 14,6 13,6 - - 13 7 - - SSW 1007,6 50 0 0,0
13.08.2018 19:00:00 14,9 13,6 - - 18 10 - - SSW 1007,4 45 0 0,0
13.08.2018 18:00:00 15,6 14,3 - - 21 11 - - SSW 1007,4 40 0 0,0
13.08.2018 17:00:00 15,0 13,7 - - 21 11 - - S 1007,6 40 0 0,0
13.08.2018 16:00:00 15,0 13,9 - - 18 10 - - S 1007,6 21 6 0,0
13.08.2018 15:00:00 14,6 14,1 - - 15 8 - - S 1007,7 35 0 0,0
13.08.2018 14:00:00 14,1 13,6 - - 13 7 - - SSE 1007,9 16 0 0,0
13.08.2018 13:00:00 13,8 13,3 - - 16 9 - - S 1007,9 45 0 0,0
13.08.2018 12:00:00 13,8 13,5 - - 16 9 - - SSE 1007,7 30 0 0,0
13.08.2018 11:00:00 13,6 13,3 - - 16 9 - - SSE 1007,5 8 0 0,4
13.08.2018 10:00:00 13,2 12,9 14,7 13,5 13 7 - - SSE 1007,7 2,7 0 0,4
13.08.2018 09:00:00 13,3 12,9 - - 15 8 - - SSE 1007,4 7 0 0,0
13.08.2018 08:00:00 13,0 12,6 - - 15 8 - - SE 1007,2 4,3 0 0,4
13.08.2018 07:00:00 13,1 12,4 - - 15 8 - - SE 1007,0 50 0 0,0
13.08.2018 06:00:00 13,1 12,3 - - 11 6 - - SSE 1006,8 18 0 0,0
13.08.2018 05:00:00 13,2 12,1 - - 13 7 - - SSE 1006,9 50 0 0,0
13.08.2018 04:00:00 13,5 11,7 - - 15 8 - - SE 1007,0 50 0 0,0
13.08.2018 03:00:00 13,4 11,6 - - 18 10 - - SE 1007,3 35 0 0,0
13.08.2018 02:00:00 13,3 11,4 - - 18 10 - - SE 1007,4 40 0 0,0
13.08.2018 01:00:00 13,4 11,4 - - 28 15 - - ESE 1007,5 30 - 0,0
13.08.2018 00:00:00 13,3 11,2 - - 29 16 - - ESE 1007,6 30 0 0,0
12.08.2018 23:00:00 13,4 11,4 - - 26 14 - - ESE 1007,8 35 0 0,0
12.08.2018 22:00:00 13,5 11,9 - - 26 14 - - ESE 1008,0 25 0 0,0
12.08.2018 21:00:00 13,7 12,1 - - 26 14 - - ESE 1008,1 26 0 0,0
12.08.2018 20:00:00 14,2 12,7 - - 21 11 - - ESE 1008,0 25 0 0,0
12.08.2018 19:00:00 14,3 12,7 - - 24 13 - - ESE 1008,1 15 0 0,0
12.08.2018 18:00:00 14,7 12,8 - - 24 13 - - ESE 1008,0 21 0 0,2
12.08.2018 17:00:00 15,0 12,3 - - 22 12 - - ESE 1008,1 29 0 0,0
12.08.2018 16:00:00 15,8 12,5 - - 24 13 - - ESE 1008,2 30 0 0,0
12.08.2018 15:00:00 15,8 12,3 - - 26 14 - - ESE 1008,3 23 0 0,0
12.08.2018 14:00:00 16,0 11,6 - - 28 15 - - ESE 1008,3 35 0 0,0
12.08.2018 13:00:00 16,3 11,4 - - 31 17 46 25 E 1008,3 35 42 0,0
12.08.2018 12:00:00 16,7 11,8 - - 37 20 48 26 E 1008,5 24 18 0,0
12.08.2018 11:00:00 15,2 11,6 - - 34 18 46 25 E 1008,6 35 0 0,0
12.08.2018 10:00:00 14,7 11,5 14,7 13,5 24 13 - - E 1008,8 30 0 0,0
12.08.2018 09:00:00 14,0 11,4 - - 24 13 - - E 1008,6 28 0 0,0
12.08.2018 08:00:00 13,6 11,3 - - 24 13 - - E 1008,8 35 0 0,0
12.08.2018 07:00:00 13,1 10,8 - - 24 13 - - ENE 1008,7 40 0 0,0
12.08.2018 06:00:00 13,0 10,5 - - 22 12 - - ENE 1008,9 50 0 0,0
12.08.2018 05:00:00 13,0 10,9 - - 21 11 - - ENE 1009,3 40 0 0,0
12.08.2018 04:00:00 13,1 10,5 - - 22 12 - - E 1009,8 50 0 0,0
12.08.2018 03:00:00 13,0 10,9 - - 21 11 - - E 1010,5 50 0 0,0
12.08.2018 02:00:00 13,0 10,8 - - 22 12 - - E 1011,1 50 0 0,0
12.08.2018 01:00:00 13,0 10,6 - - 24 13 - - E 1011,6 45 - 0,0
12.08.2018 00:00:00 13,1 10,2 - - 26 14 - - E 1012,1 45 0 0,0
11.08.2018 23:00:00 13,3 10,6 - - 22 12 - - E 1012,7 40 0 0,0
11.08.2018 22:00:00 13,6 10,6 - - 22 12 - - ENE 1013,3 27 0 0,0
11.08.2018 21:00:00 13,5 9,5 - - 22 12 - - ENE 1013,9 45 0 0,0
11.08.2018 20:00:00 13,7 8,3 - - 21 11 - - E 1014,3 45 0 0,0
11.08.2018 19:00:00 14,3 8,9 - - 13 7 - - E 1014,8 50 0 0,0
11.08.2018 18:00:00 14,7 8,2 - - 9 5 - - E 1015,0 40 0 0,0
11.08.2018 17:00:00 14,5 8,5 - - 11 6 - - SE 1015,4 45 0 0,0
11.08.2018 16:00:00 14,5 10,0 - - 15 8 - - SSE 1015,8 50 0 0,0
11.08.2018 15:00:00 14,6 9,5 - - 16 9 - - S 1016,4 35 12 0,0
11.08.2018 14:00:00 14,2 10,4 - - 15 8 - - S 1016,7 35 0 0,0
11.08.2018 13:00:00 14,5 11,3 - - 16 9 - - SSE 1016,9 40 30 0,0
11.08.2018 12:00:00 15,1 11,1 - - 16 9 - - S 1017,0 25 30 0,0
11.08.2018 11:00:00 13,8 10,8 - - 18 10 - - S 1017,1 40 24 0,0
11.08.2018 10:00:00 13,8 9,7 14,7 13,7 9 5 - - S 1017,4 30 24 0,0
11.08.2018 09:00:00 12,9 9,5 - - 11 6 - - SSW 1017,6 35 18 0,0
11.08.2018 08:00:00 12,3 9,7 - - 11 6 - - SW 1017,5 45 24 0,0
11.08.2018 07:00:00 10,4 9,2 - - 5 3 - - SW 1017,3 45 0 0,0
11.08.2018 06:00:00 10,6 9,4 - - 8 4 - - SSW 1017,1 50 0 0,0
11.08.2018 05:00:00 10,7 9,3 - - 8 4 - - WSW 1017,2 45 0 0,0
11.08.2018 04:00:00 10,6 9,3 - - 5 3 - - W 1017,2 19 0 0,0
11.08.2018 03:00:00 9,9 8,8 - - 8 4 - - SSW 1017,2 50 0 0,0
11.08.2018 02:00:00 9,7 8,5 - - 8 4 - - W 1017,7 50 0 0,0
11.08.2018 01:00:00 8,3 7,2 - - 9 5 - - WSW 1017,7 45 - 0,0
11.08.2018 00:00:00 9,4 7,7 - - 5 3 - - SW 1017,6 45 0 0,0
10.08.2018 23:00:00 11,1 8,6 - - 5 3 - - W 1017,5 50 0 0,0
10.08.2018 22:00:00 12,5 8,6 - - 4 2 - - W 1017,1 50 6 0,0
10.08.2018 21:00:00 13,4 8,8 - - 11 6 - - WNW 1016,6 45 30 0,0
10.08.2018 20:00:00 13,8 8,7 - - 13 7 - - NW 1016,0 45 12 0,0
10.08.2018 19:00:00 14,7 8,5 - - 18 10 - - NW 1015,8 45 24 0,0
10.08.2018 18:00:00 15,0 7,6 - - 21 11 - - NW 1015,4 35 36 0,0
10.08.2018 17:00:00 15,4 8,4 - - 21 11 - - NW 1015,0 45 24 0,0
10.08.2018 16:00:00 15,0 9,8 - - 16 9 - - NW 1014,6 50 0 0,0
10.08.2018 15:00:00 13,2 10,6 - - 9 5 - - S 1014,3 50 0 0,0
10.08.2018 14:00:00 13,4 10,2 - - 8 4 - - SW 1013,9 50 0 0,0
10.08.2018 13:00:00 13,6 9,0 - - 9 5 - - SW 1013,4 45 12 0,0
10.08.2018 12:00:00 13,8 11,1 - - 9 5 - - SW 1013,0 9 0 0,0
10.08.2018 11:00:00 14,0 9,6 - - 5 3 - - NNE 1012,6 45 0 0,0
10.08.2018 10:00:00 13,1 10,1 14,7 13,7 8 4 - - NNW 1012,3 45 0 0,0
10.08.2018 09:00:00 11,6 10,5 - - 8 4 - - NW 1012,0 18 0 0,0
10.08.2018 08:00:00 9,7 9,0 - - 4 2 - - W 1011,5 50 0 0,0
10.08.2018 07:00:00 8,0 7,5 - - 4 2 - - W 1011,1 35 0 0,0
10.08.2018 06:00:00 6,8 6,2 - - 2 1 - - WNW 1010,8 45 0 0,0
10.08.2018 05:00:00 6,5 6,0 - - 8 4 - - WNW 1010,6 50 0 0,0
10.08.2018 04:00:00 7,1 6,4 - - 4 2 - - NW 1010,8 50 0 0,0
10.08.2018 03:00:00 8,0 7,2 - - 2 1 - - N 1010,8 50 0 0,0
10.08.2018 02:00:00 8,1 7,0 - - 4 2 - - WSW 1010,8 50 0 0,0

tt = Température de l'air
td = dewpoint
tt -20cm = Température de l'air -20cm
tt -100cm = Température de l'air -100cm
ff = Vitesse du vent
fx = gusts
dd = Direction du vent
ppp = reduced air pressure
vv = visibility
sd = Ensoleillement
rr = Quantités de précipitations

stations d'obs. à proximité